SYRACUSE 4B

Last updated on Sat Oct 18 2025 00:02:57 GMT+0000 (Coordinated Universal Time)

1 57214U 23093B 25290.33944965 .00000000 00000+0 00000+0 0 9995 2 57214 0.0203 211.2680 0000315 99.4348 191.0508 1.00272126 4539
UTC large
Height (km)
Speed (km/s)
/
Latitude / Longitude
Inclination (degrees)
Orbital Period (minutes)
Azimuth
Elevation
Range (km)
Doppler Factor

Next 0 passes for location: London (51.5072 / 0.1276)

Sorry there are no passes over London.